STARLINK-5342, 56516

Orbit data source: Space-Track

STARLINK-5342, 56516 is a payload satellite owned by SpaceX/Seattle (US) in LEO that was launched on Sun, 14 May 2023 UTC via an FALCON 9 launch vehicle from the Air Force Eastern Test Range (AFETR). Payload-class satellites include a variety of spacecraft equipped with specific instruments for various scientific and technological missions. These include communications satellites like Starlink; space stations such as the ISS; scientific satellites like the Hubble; Earth observation satellites from companies like Planet Labs, Umbra, and HawkEye 360; GPS; miniature CubeSats for education and research; and military/defense satellites.

Loading next visibility...
Identifier
56516, 2023-065P
Orbit
LEO
Country
Flag of USUS
Related business
Manufacturer
SpaceX/Seattle
Mission
Operational Commercial Communications
Bus & Motor
STARLINK, Unknown motor
Mass
305 kg wet, ~290 kg dry
Launch date (UTC)
2023-05-14 (3 years ago)
Launch vehicle
FALCON 9
Launch site
Air Force Eastern Test Range (AFETR)
Object type
Payload
Rocket body
Debris
Shape & HBR
Box + 1 Pan, 10.1 m
Radar Cross Section
11.087 m², Large (>1 m²)

Expand to show TLE details & history
Last TLE update: 3 days ago

TLE from 3 days ago
0 STARLINK-5342
1 56516U 23065P   26170.57308484  .00000621  00000-0  32088-4 0  9998
2 56516  43.0051 356.9156 0001773 266.0197  94.0452 15.27577790172185
Epoch: 2026-06-19T13:45Z
TLE epoch observation values (Epoch: 2026-06-19T13:45:14.530Z)
Latitude
-0.00001°
Longitude
-117.19508°
Altitude
482.918 km
Speed
7.626 km/s
True Right ascension
23h 47m 39s
True Declination
0° 00' 00"
Sunlit
Object was in daylight at epoch
Visualization orbit readout
Latitude
Unknown
Longitude
Unknown
Altitude
Unknown
Speed
Unknown
Apparent Right ascension
Unknown
Apparent Declination
Unknown
Sunlit
N/A
Visualization observer readout
Local Sidereal Time
21:25:02
Azimuth
Unknown
Elevation
Unknown
Doppler factor
Unknown
Orbital elements
Apogee altitude
486.217 km
Perigee altitude
483.783 km
Semi-major axis
6,863.137 km
Eccentricity
0.00018
Inclination
43.0051°
RAAN
356.9156°
Arg. of periapsis
266.0197°
True anomaly
94.06547°
Mean anomaly
94.0452°
Eccentric anomaly
94.05533°
Mean motion
3.81733 °/min
Orbital period
94.31 mins
BSTAR
0.000032088
Loading maneuver chart data...
Computing Atmospheric mass density...
Loading historical data...
Loading historical data...
Loading historical data...
Loading historical data...
Loading historical data...
Loading historical data...
Loading historical data...

Documentation

Showing up to 5 results
|